Regional Weather Roundup
Issued by NWS

Home | Current Version | Previous Version | Graphics & Text | Print | Product List | Glossary On
Versions: 1 2 3 4 5 6 7 8 9 10 11 12 13 14 15 16 17 18 19 20 21 22 23 24 25 26 27 28 29 30 31 32 33 34 35 36 37 38 39 40 41 42 43 44 45 46 47 48 49 50
000
ASUS43 KLOT 051903
RWRIL

ILLINOIS REGIONAL WEATHER ROUNDUP
NATIONAL WEATHER SERVICE CHICAGO/ROMEOVILLE IL
100 PM CST FRI FEB 05 2016

NOTE: "FAIR" INDICATES FEW OR NO CLOUDS BELOW 12,000 FEET WITH NO
SIGNIFICANT WEATHER AND/OR OBSTRUCTIONS TO VISIBILITY.

* THESE STATIONS ARE NOT UNDER NWS QUALITY CONTROL. THEY ALSO MAY NOT
  REPORT WEATHER SUCH AS PRECIPITATION OR FOG.

ILZ001-002-007-009-015-016-024-052000-
NORTHWEST ILLINOIS

CITY           SKY/WX    TMP DP  RH WIND       PRES   REMARKS
MOLINE         CLOUDY    31  18  58 VRB3      30.38F
STERLING*      CLOUDY    30  19  64 W7        30.35F WCI  23
$$

ILZ003-004-008-010-011-017-018-052000-
NORTH CENTRAL ILLINOIS

CITY           SKY/WX    TMP DP  RH WIND       PRES   REMARKS
ROCKFORD       CLOUDY    31  19  61 W7        30.38F WCI  24
FREEPORT*      MOSUNNY   29  19  65 W3        30.38F
DE KALB*       PTSUNNY   29  21  71 W6        30.36S WCI  23
$$

ILZ005-006-012>014-019>023-052000-
NORTHEAST ILLINOIS

CITY           SKY/WX    TMP DP  RH WIND       PRES   REMARKS
CHICAGO-OHARE  PTSUNNY   31  21  66 NW7       30.34S WCI  24
CHICAGO-MIDWAY PTSUNNY   32  21  64 W7        30.34F WCI  26
AURORA         CLOUDY    30  22  72 NW8       30.36F WCI  22
LANSING*       CLOUDY    33  24  70 CALM      30.34S
WAUKEGAN       SUNNY     30  20  66 NW8       30.33F WCI  22
DUPAGE AIRPORT MOSUNNY   31  20  63 NW7       30.34F WCI  24
WHEELING       SUNNY     32  21  64 NW8       30.35F WCI  25
NORTHERLY ISL    N/A     30  24  78 N7          N/A  WCI  23
$$

LMZ740>746-052000-
SOUTHERN LAKE MICHIGAN

STATION/POSITION SKY/WX   TEMP    WIND        PRES    VSBY  WAVE
                          AIR SEA DIR/SP/G                  HT/PER
                          (F)     (DEG/KT/KT) (MB)    (MI)  (FT/S)
HARRISON CRIB              29     360/ 15/ 17   N/A
BURNHAM HARBOR             30      20/  8/ 13   N/A
CALUMET HARBOR             30     350/ 11/ 13 1026.8F
BURNS HARBOR               30     340/ 11/ 14 1027.8F
MICHIGAN CITY              30     300/ 15/ 17   N/A
$$

ILZ025>027-034>036-040-047-049-050-058-095>099-052000-
WEST-CENTRAL ILLINOIS

CITY           SKY/WX    TMP DP  RH WIND       PRES   REMARKS
QUINCY         MOSUNNY   31  20  63 CALM      30.39F
MACOMB*        MOSUNNY   31  23  72 W5        30.43S WCI  26
$$

ILZ028>032-037-038-041>044-048-051>054-059>061-052000-
CENTRAL ILLINOIS

CITY           SKY/WX    TMP DP  RH WIND       PRES   REMARKS
BLOOMINGTON    CLOUDY    32  23  69 VRB3      30.37F
DECATUR        CLOUDY    32  22  66 SW6       30.38F WCI  26
PEORIA         PTSUNNY   31  20  63 W7        30.40S WCI  24
LINCOLN*       MOSUNNY   33  24  68 W3        30.39F
SPRINGFIELD    CLOUDY    34  23  64 W8        30.40F WCI  27
TAYLORVILLE    NOT AVBL
$$

ILZ033-039-045-046-055>057-062-063-052000-
EAST-CENTRAL ILLINOIS

CITY           SKY/WX    TMP DP  RH WIND       PRES   REMARKS
CHAMPAIGN      CLOUDY    31  22  69 W7        30.37F WCI  24
MATTOON        CLOUDY    31  22  69 NW7       30.37F WCI  24
$$

ILZ079-100>102-052000-
SOUTHWEST ILLINOIS

CITY           SKY/WX    TMP DP  RH WIND       PRES   REMARKS
ALTON          CLOUDY    36  19  51 NW8       30.40F WCI  29
BELLEVILLE     CLOUDY    39  20  46 N6        30.39F
CAHOKIA*       MOSUNNY   40  20  44 CALM      30.40F
SPARTA*        CLOUDY    38  23  55 NW5       30.41F WCI  35
$$

ILZ064>066-069>071-074>076-080>082-084>086-088>090-092>094-052000-
SOUTH-CENTRAL ILLINOIS

CITY           SKY/WX    TMP DP  RH WIND       PRES   REMARKS
CARBONDALE     SUNNY     44  24  45 NW6       30.40F
MT. VERNON     CLOUDY    41  25  52 W8        30.40F
CENTRALIA*     CLOUDY    37  25  62 W3        30.39F
SALEM*         CLOUDY    38  25  58 W3        30.39F
$$

ILZ067-068-072-073-078-083-087-091-052000-
SOUTHEAST ILLINOIS

CITY           SKY/WX    TMP DP  RH WIND       PRES   REMARKS
LAWRENCEVILLE  SUNNY     41  25  53 NW7       30.39F
HARRISBURG*    SUNNY     45  27  49 W8        30.40F
ROBINSON*      SUNNY     38  25  61 W8        30.40F WCI  32
CARMI*         MOSUNNY   44  28  53 W7        30.39F
$$

ABBREVIATIONS USED IN REMARKS
   TC - TEMPERATURE IN CELSIUS
  WCI - WIND CHILL INDEX
   HX - HEAT INDEX
  VSB - VISIBILITY
$$




USA.gov is the U.S. government's official web portal to all federal, state and local government web resources and services.